EN

Hourly Weather Abercarn

Today, 19 October, Monday

Time Temperature Precipitation Wind Pressure Humidity
00:00 +7°C° 0 mm 2 mps 747 mmHg 93%
01:00 +7°C° 0 mm 2 mps 746 mmHg 93%
02:00 +7°C° 0 mm 2 mps 746 mmHg 93%
03:00 +7°C° 0 mm 2 mps 745 mmHg 93%
04:00 +7°C° 0 mm 2 mps 745 mmHg 93%
05:00 +7°C° 0 mm 3 mps 744 mmHg 93%
06:00 +7°C° 0 mm 3 mps 743 mmHg 93%
07:00 +7°C° 0 mm 4 mps 743 mmHg 91%
08:00 +8°C° 0 mm 5 mps 743 mmHg 89%
09:00 +9°C° 0 mm 6 mps 743 mmHg 87%
10:00 +10°C° 0 mm 6 mps 742 mmHg 84%
11:00 +11°C° 0 mm 6 mps 741 mmHg 82%
12:00 +11°C° 0 mm 7 mps 741 mmHg 79%
13:00 +11°C° 0 mm 6 mps 740 mmHg 79%
14:00 +11°C° 0 mm 6 mps 739 mmHg 78%
15:00 +10°C° 0 mm 6 mps 738 mmHg 77%
16:00 +10°C° 0 mm 6 mps 738 mmHg 78%
17:00 +9°C° 0 mm 5 mps 737 mmHg 79%
18:00 +10°C° 0 mm 4 mps 736 mmHg 79%
19:00 +9°C° 0 mm 5 mps 736 mmHg 79%
20:00 +9°C° 0 mm 5 mps 735 mmHg 79%
21:00 +9°C° 0 mm 6 mps 734 mmHg 79%
22:00 +9°C° 0.2 mm 6 mps 734 mmHg 82%
23:00 +9°C° 0.2 mm 6 mps 733 mmHg 85%

Tomorrow, 20 October, Tuesday

Time Temperature Precipitation Wind Pressure Humidity
00:00 +10°C° 0.2 mm 6 mps 732 mmHg 88%
01:00 +11°C° 0.3 mm 7 mps 731 mmHg 89%
02:00 +11°C° 0.3 mm 7 mps 731 mmHg 90%
03:00 +12°C° 0.3 mm 8 mps 731 mmHg 91%
04:00 +11°C° 0.1 mm 7 mps 731 mmHg 92%
05:00 +11°C° 0.1 mm 7 mps 731 mmHg 93%
06:00 +10°C° 0.1 mm 6 mps 731 mmHg 94%
07:00 +11°C° 0 mm 7 mps 731 mmHg 92%
08:00 +11°C° 0 mm 7 mps 731 mmHg 89%
09:00 +12°C° 0 mm 7 mps 732 mmHg 87%
10:00 +12°C° 0.2 mm 8 mps 732 mmHg 85%
11:00 +13°C° 0.2 mm 9 mps 732 mmHg 83%
12:00 +15°C° 0.2 mm 9 mps 732 mmHg 81%
13:00 +15°C° 0.3 mm 9 mps 732 mmHg 81%
14:00 +15°C° 0.3 mm 9 mps 731 mmHg 81%
15:00 +15°C° 0.3 mm 9 mps 731 mmHg 81%
16:00 +13°C° 0.2 mm 8 mps 731 mmHg 84%
17:00 +12°C° 0.2 mm 8 mps 731 mmHg 86%
18:00 +12°C° 0.2 mm 7 mps 731 mmHg 89%
19:00 +13°C° 0 mm 6 mps 731 mmHg 89%
20:00 +13°C° 0 mm 6 mps 731 mmHg 90%
21:00 +13°C° 0 mm 5 mps 731 mmHg 90%
22:00 +12°C° 0 mm 5 mps 731 mmHg 92%
23:00 +12°C° 0 mm 4 mps 730 mmHg 93%

Day after tomorrow, 21 October, Wednesday

Time Temperature Precipitation Wind Pressure Humidity
00:00 +12°C° 0 mm 3 mps 730 mmHg 95%
01:00 +12°C° 0.4 mm 3 mps 729 mmHg 96%
02:00 +13°C° 0.4 mm 2 mps 729 mmHg 97%
03:00 +13°C° 0.4 mm 1 mps 728 mmHg 98%
04:00 +12°C° 0.6 mm 1 mps 728 mmHg 97%
05:00 +12°C° 0.6 mm 1 mps 727 mmHg 96%
06:00 +12°C° 0.6 mm 1 mps 727 mmHg 96%
07:00 +12°C° 0.3 mm 2 mps 728 mmHg 95%
08:00 +11°C° 0.3 mm 3 mps 728 mmHg 95%
09:00 +11°C° 0.3 mm 3 mps 729 mmHg 94%
10:00 +12°C° 0.5 mm 5 mps 730 mmHg 92%
11:00 +11°C° 0.5 mm 6 mps 731 mmHg 91%
12:00 +12°C° 0.5 mm 7 mps 731 mmHg 89%
13:00 +13°C° 0.4 mm 6 mps 732 mmHg 91%
14:00 +13°C° 0.4 mm 5 mps 732 mmHg 92%
15:00 +12°C° 0.4 mm 4 mps 732 mmHg 94%
16:00 +12°C° 0.3 mm 4 mps 732 mmHg 95%
17:00 +12°C° 0.3 mm 3 mps 733 mmHg 95%
18:00 +12°C° 0.3 mm 3 mps 733 mmHg 96%
19:00 +13°C° 0 mm 2 mps 734 mmHg 96%
20:00 +13°C° 0 mm 2 mps 734 mmHg 96%
21:00 +12°C° 0 mm 2 mps 735 mmHg 96%
22:00 +12°C° 0 mm 2 mps 735 mmHg 96%
23:00 +10°C° 0 mm 3 mps 736 mmHg 95%

22 October, Thursday

Time Temperature Precipitation Wind Pressure Humidity
00:00 +10°C° 0 mm 3 mps 736 mmHg 95%
01:00 +10°C° 0 mm 2 mps 737 mmHg 96%
02:00 +10°C° 0 mm 2 mps 737 mmHg 96%
03:00 +9°C° 0 mm 2 mps 737 mmHg 96%
04:00 +9°C° 0 mm 2 mps 737 mmHg 96%
05:00 +9°C° 0 mm 2 mps 738 mmHg 96%
06:00 +9°C° 0 mm 2 mps 738 mmHg 96%
07:00 +10°C° 0 mm 2 mps 738 mmHg 94%
08:00 +10°C° 0 mm 2 mps 739 mmHg 93%
09:00 +12°C° 0 mm 2 mps 739 mmHg 92%
10:00 +12°C° 0 mm 2 mps 739 mmHg 88%
11:00 +13°C° 0 mm 2 mps 739 mmHg 85%
12:00 +14°C° 0 mm 2 mps 739 mmHg 82%
13:00 +14°C° 0.1 mm 2 mps 739 mmHg 81%
14:00 +14°C° 0.1 mm 1 mps 739 mmHg 80%
15:00 +14°C° 0.1 mm 1 mps 739 mmHg 79%
16:00 +13°C° 0.1 mm 1 mps 739 mmHg 83%
17:00 +12°C° 0.1 mm 1 mps 739 mmHg 87%
18:00 +10°C° 0.1 mm 0 mps 739 mmHg 90%
19:00 +10°C° 0 mm 1 mps 739 mmHg 91%
20:00 +10°C° 0 mm 1 mps 739 mmHg 92%
21:00 +9°C° 0 mm 1 mps 739 mmHg 93%
22:00 +9°C° 0 mm 1 mps 739 mmHg 94%
23:00 +9°C° 0 mm 1 mps 739 mmHg 95%

23 October, Friday

Time Temperature Precipitation Wind Pressure Humidity
00:00 +9°C° 0 mm 1 mps 739 mmHg 95%
01:00 +8°C° 0 mm 2 mps 739 mmHg 95%
02:00 +8°C° 0 mm 2 mps 738 mmHg 95%
03:00 +8°C° 0 mm 2 mps 738 mmHg 95%
04:00 +8°C° 0 mm 2 mps 739 mmHg 95%
05:00 +8°C° 0 mm 2 mps 739 mmHg 95%
06:00 +8°C° 0 mm 2 mps 739 mmHg 95%
07:00 +8°C° 0 mm 2 mps 739 mmHg 92%
08:00 +9°C° 0 mm 2 mps 739 mmHg 88%
09:00 +9°C° 0 mm 2 mps 739 mmHg 85%
10:00 +10°C° 0 mm 3 mps 740 mmHg 83%
11:00 +10°C° 0 mm 4 mps 740 mmHg 81%
12:00 +10°C° 0 mm 6 mps 740 mmHg 80%
13:00 +10°C° 0 mm 6 mps 740 mmHg 79%
14:00 +10°C° 0 mm 5 mps 740 mmHg 79%
15:00 +10°C° 0 mm 5 mps 740 mmHg 78%
16:00 +9°C° 0 mm 5 mps 740 mmHg 82%
17:00 +9°C° 0 mm 5 mps 741 mmHg 86%
18:00 +8°C° 0 mm 5 mps 741 mmHg 89%
19:00 +8°C° 0 mm 4 mps 741 mmHg 90%
20:00 +8°C° 0 mm 4 mps 741 mmHg 91%
21:00 +8°C° 0 mm 4 mps 742 mmHg 91%
22:00 +8°C° 0.1 mm 4 mps 742 mmHg 92%
23:00 +9°C° 0.1 mm 3 mps 742 mmHg 93%

24 October, Saturday

Time Temperature Precipitation Wind Pressure Humidity
00:00 +9°C° 0.1 mm 3 mps 742 mmHg 94%
01:00 +8°C° 0.1 mm 4 mps 741 mmHg 94%
02:00 +9°C° 0.1 mm 5 mps 741 mmHg 94%
03:00 +9°C° 0.1 mm 5 mps 740 mmHg 94%
04:00 +9°C° 0 mm 6 mps 740 mmHg 93%
05:00 +10°C° 0 mm 7 mps 740 mmHg 92%
06:00 +10°C° 0 mm 7 mps 740 mmHg 90%
07:00 +11°C° 0 mm 7 mps 739 mmHg 90%
08:00 +11°C° 0 mm 7 mps 739 mmHg 90%
09:00 +11°C° 0 mm 7 mps 739 mmHg 90%
10:00 +12°C° 0.1 mm 8 mps 739 mmHg 88%
11:00 +12°C° 0.1 mm 8 mps 739 mmHg 87%
12:00 +13°C° 0.1 mm 9 mps 739 mmHg 86%
13:00 +13°C° 0.1 mm 9 mps 738 mmHg 86%
14:00 +12°C° 0.1 mm 9 mps 738 mmHg 86%
15:00 +12°C° 0.1 mm 9 mps 738 mmHg 86%
16:00 +12°C° 0.1 mm 9 mps 737 mmHg 87%
17:00 +12°C° 0.1 mm 9 mps 737 mmHg 87%
18:00 +11°C° 0.1 mm 9 mps 736 mmHg 88%
19:00 +12°C° 0.1 mm 10 mps 736 mmHg 88%
20:00 +12°C° 0.1 mm 10 mps 736 mmHg 89%
21:00 +12°C° 0.1 mm 10 mps 736 mmHg 89%
22:00 +11°C° 1.3 mm 9 mps 736 mmHg 90%
23:00 +11°C° 1.3 mm 8 mps 735 mmHg 92%

25 October, Sunday

Time Temperature Precipitation Wind Pressure Humidity
00:00 +11°C° 1.3 mm 7 mps 735 mmHg 93%
01:00 +10°C° 1.1 mm 6 mps 735 mmHg 94%
02:00 +11°C° 1.1 mm 4 mps 735 mmHg 94%
03:00 +10°C° 1.1 mm 3 mps 734 mmHg 95%
04:00 +10°C° 0.8 mm 3 mps 734 mmHg 95%
05:00 +9°C° 0.8 mm 2 mps 734 mmHg 95%
06:00 +9°C° 0.8 mm 2 mps 734 mmHg 95%
07:00 +9°C° 1.2 mm 2 mps 734 mmHg 95%
08:00 +10°C° 1.2 mm 1 mps 734 mmHg 95%
09:00 +10°C° 1.2 mm 1 mps 734 mmHg 95%
10:00 +10°C° 1.6 mm 1 mps 734 mmHg 95%
11:00 +10°C° 1.6 mm 1 mps 734 mmHg 95%
12:00 +10°C° 1.6 mm 1 mps 734 mmHg 95%
13:00 +8°C° 1.5 mm 2 mps 734 mmHg 92%
14:00 +8°C° 1.5 mm 3 mps 733 mmHg 90%
15:00 +6°C° 1.5 mm 4 mps 733 mmHg 87%
16:00 +7°C° 0.3 mm 3 mps 734 mmHg 88%
17:00 +7°C° 0.3 mm 2 mps 734 mmHg 88%
18:00 +8°C° 0.3 mm 1 mps 734 mmHg 89%
19:00 +7°C° 0 mm 2 mps 734 mmHg 89%
20:00 +7°C° 0 mm 2 mps 735 mmHg 90%
21:00 +7°C° 0 mm 2 mps 735 mmHg 90%
22:00 +6°C° 0 mm 2 mps 735 mmHg 91%
23:00 +5°C° 0 mm 3 mps 735 mmHg 92%
Show more